VBD205 KJFK-KBOS

Flight info

Callsign VBD205
Flight time 1h 2m
Altitude 21000
Route EEGOR HFD FOSTY WOONS
Aircraft TBM9/L-SDFGRWY/S

Departure

Time 2026-05-08 15:15
Airport John F. Kennedy International Airport (KJFK)

Arrival

Time 2026-05-08 16:18
Airport Boston Logan International Airport (KBOS)
Time Latitude Longitude Altitude Speed Heading
2026-05-08 15:12 40.63423 -73.78268 17 ft 0 kts 119°
2026-05-08 15:12 40.63409 -73.78238 17 ft 6 kts 121°
2026-05-08 15:13 40.63388 -73.78219 17 ft 0 kts 200°
2026-05-08 15:13 40.63378 -73.78231 17 ft 0 kts 214°
2026-05-08 15:13 40.63383 -73.78227 17 ft 1 kts 192°
2026-05-08 15:14 40.63360 -73.78245 17 ft 5 kts 219°
2026-05-08 15:14 40.63331 -73.78294 17 ft 8 kts 244°
2026-05-08 15:14 40.63339 -73.78374 16 ft 12 kts 296°
2026-05-08 15:14 40.63496 -73.78713 18 ft 77 kts 301°
2026-05-08 15:15 40.63824 -73.79507 190 ft 114 kts 305°
2026-05-08 15:15 40.64608 -73.79915 454 ft 142 kts 11°
2026-05-08 15:15 40.65400 -73.79037 756 ft 166 kts 67°
2026-05-08 15:15 40.65609 -73.77464 1065 ft 183 kts 82°
2026-05-08 15:16 40.65995 -73.75807 1355 ft 196 kts 66°
2026-05-08 15:16 40.66775 -73.74296 1635 ft 205 kts 47°
2026-05-08 15:16 40.67825 -73.72992 1913 ft 209 kts 42°
2026-05-08 15:16 40.68563 -73.72130 2109 ft 210 kts 42°
2026-05-08 15:17 40.69642 -73.70819 2394 ft 212 kts 44°
2026-05-08 15:17 40.70700 -73.69492 2668 ft 214 kts 44°
2026-05-08 15:17 40.71786 -73.68132 2936 ft 216 kts 44°
2026-05-08 15:17 40.72878 -73.66777 3206 ft 215 kts 44°
2026-05-08 15:18 40.73961 -73.65421 3489 ft 215 kts 44°
2026-05-08 15:18 40.75054 -73.64052 3764 ft 218 kts 44°
2026-05-08 15:18 40.76165 -73.62676 4032 ft 219 kts 44°
2026-05-08 15:18 40.77273 -73.61295 4306 ft 219 kts 44°
2026-05-08 15:19 40.78390 -73.59897 4582 ft 219 kts 44°
2026-05-08 15:19 40.79479 -73.58535 4851 ft 219 kts 44°
2026-05-08 15:19 40.80585 -73.57152 5124 ft 219 kts 44°
2026-05-08 15:19 40.81691 -73.55768 5397 ft 220 kts 44°
2026-05-08 15:20 40.82802 -73.54378 5670 ft 220 kts 44°
2026-05-08 15:20 40.83913 -73.52986 5944 ft 220 kts 44°
2026-05-08 15:20 40.85025 -73.51593 6216 ft 221 kts 44°
2026-05-08 15:20 40.86142 -73.50192 6490 ft 222 kts 44°
2026-05-08 15:21 40.87261 -73.48788 6763 ft 222 kts 44°
2026-05-08 15:21 40.88381 -73.47383 7036 ft 222 kts 44°
2026-05-08 15:21 40.89504 -73.45973 7309 ft 223 kts 44°
2026-05-08 15:21 40.90630 -73.44559 7583 ft 223 kts 44°
2026-05-08 15:22 40.91758 -73.43141 7856 ft 224 kts 44°
2026-05-08 15:22 40.92888 -73.41718 8129 ft 225 kts 44°
2026-05-08 15:22 40.94020 -73.40298 8402 ft 225 kts 44°
2026-05-08 15:22 40.95159 -73.38864 8676 ft 226 kts 44°
2026-05-08 15:23 40.96297 -73.37430 8949 ft 226 kts 44°
2026-05-08 15:23 40.97436 -73.35995 9222 ft 227 kts 44°
2026-05-08 15:23 40.98581 -73.34553 9496 ft 227 kts 44°
2026-05-08 15:23 40.99726 -73.33108 9769 ft 228 kts 44°
2026-05-08 15:24 41.00875 -73.31658 10043 ft 228 kts 44°
2026-05-08 15:24 41.02025 -73.30207 10316 ft 229 kts 44°
2026-05-08 15:24 41.03179 -73.28749 10591 ft 229 kts 44°
2026-05-08 15:24 41.04334 -73.27289 10864 ft 230 kts 44°
2026-05-08 15:25 41.05493 -73.25824 11135 ft 230 kts 44°
2026-05-08 15:25 41.06654 -73.24356 11408 ft 231 kts 44°
2026-05-08 15:25 41.07817 -73.22884 11682 ft 232 kts 44°
2026-05-08 15:25 41.08984 -73.21405 11954 ft 232 kts 44°
2026-05-08 15:26 41.10171 -73.19898 12012 ft 242 kts 44°
2026-05-08 15:26 41.11402 -73.18330 12015 ft 249 kts 44°
2026-05-08 15:26 41.12666 -73.16724 12019 ft 254 kts 44°
2026-05-08 15:26 41.13953 -73.15091 12020 ft 259 kts 44°
2026-05-08 15:27 41.15264 -73.13424 12026 ft 264 kts 44°
2026-05-08 15:27 41.16616 -73.11752 12023 ft 268 kts 41°
2026-05-08 15:27 41.18019 -73.10105 12026 ft 270 kts 43°
2026-05-08 15:27 41.19414 -73.08426 12027 ft 271 kts 43°
2026-05-08 15:28 41.20820 -73.06742 12023 ft 272 kts 43°
2026-05-08 15:28 41.22229 -73.05064 12023 ft 273 kts 42°
2026-05-08 15:28 41.23644 -73.03384 12020 ft 273 kts 42°
2026-05-08 15:28 41.25055 -73.01697 12018 ft 273 kts 43°
2026-05-08 15:29 41.26465 -73.00009 12017 ft 273 kts 42°
2026-05-08 15:29 41.27882 -72.98324 12015 ft 274 kts 42°
2026-05-08 15:29 41.29298 -72.96630 12012 ft 274 kts 43°
2026-05-08 15:29 41.30712 -72.94937 12008 ft 273 kts 42°
2026-05-08 15:30 41.32127 -72.93248 12008 ft 273 kts 43°
2026-05-08 15:30 41.33538 -72.91557 12007 ft 273 kts 43°
2026-05-08 15:30 41.34948 -72.89866 12007 ft 273 kts 43°
2026-05-08 15:30 41.36359 -72.88176 12008 ft 273 kts 42°
2026-05-08 15:31 41.37769 -72.86483 12007 ft 273 kts 43°
2026-05-08 15:31 41.39180 -72.84788 12007 ft 273 kts 43°
2026-05-08 15:31 41.40591 -72.83096 12009 ft 273 kts 43°
2026-05-08 15:31 41.42000 -72.81403 12009 ft 273 kts 43°
2026-05-08 15:32 41.43408 -72.79708 12007 ft 273 kts 43°
2026-05-08 15:32 41.44817 -72.78009 12007 ft 273 kts 43°
2026-05-08 15:32 41.46229 -72.76310 12009 ft 273 kts 43°
2026-05-08 15:32 41.47642 -72.74612 12009 ft 273 kts 43°
2026-05-08 15:33 41.49052 -72.72913 12009 ft 273 kts 43°
2026-05-08 15:33 41.50462 -72.71209 12007 ft 274 kts 43°
2026-05-08 15:33 41.51873 -72.69505 12008 ft 274 kts 43°
2026-05-08 15:33 41.53286 -72.67804 12007 ft 273 kts 43°
2026-05-08 15:34 41.54691 -72.66100 12007 ft 273 kts 43°
2026-05-08 15:34 41.56098 -72.64396 12009 ft 273 kts 43°
2026-05-08 15:34 41.57508 -72.62697 12008 ft 273 kts 42°
2026-05-08 15:34 41.58918 -72.60992 12009 ft 273 kts 43°
2026-05-08 15:35 41.60324 -72.59283 12007 ft 273 kts 43°
2026-05-08 15:35 41.61731 -72.57576 12009 ft 273 kts 43°
2026-05-08 15:35 41.63126 -72.55856 12013 ft 273 kts 46°
2026-05-08 15:35 41.64201 -72.53776 12029 ft 273 kts 64°
2026-05-08 15:36 41.64845 -72.51392 12026 ft 273 kts 75°
2026-05-08 15:36 41.65389 -72.48962 12021 ft 273 kts 73°
2026-05-08 15:36 41.65950 -72.46532 12019 ft 273 kts 73°
2026-05-08 15:36 41.66502 -72.44101 12020 ft 273 kts 74°
2026-05-08 15:37 41.67052 -72.41667 12018 ft 273 kts 74°
2026-05-08 15:37 41.67602 -72.39232 12016 ft 274 kts 74°
2026-05-08 15:37 41.68154 -72.36795 12013 ft 274 kts 74°
2026-05-08 15:37 41.68705 -72.34357 12010 ft 274 kts 74°
2026-05-08 15:38 41.69255 -72.31921 12008 ft 274 kts 74°
2026-05-08 15:38 41.69803 -72.29478 12009 ft 274 kts 74°
2026-05-08 15:38 41.70354 -72.27040 12008 ft 274 kts 74°
2026-05-08 15:38 41.70903 -72.24601 12007 ft 274 kts 74°
2026-05-08 15:39 41.71451 -72.22163 12009 ft 274 kts 74°
2026-05-08 15:39 41.71998 -72.19720 12009 ft 274 kts 74°
2026-05-08 15:39 41.72545 -72.17274 12009 ft 274 kts 74°
2026-05-08 15:39 41.73093 -72.14828 12008 ft 274 kts 74°
2026-05-08 15:40 41.73639 -72.12386 12007 ft 274 kts 74°
2026-05-08 15:40 41.74185 -72.09947 12008 ft 274 kts 74°
2026-05-08 15:40 41.74729 -72.07508 12008 ft 273 kts 74°
2026-05-08 15:40 41.75273 -72.05067 12007 ft 273 kts 74°
2026-05-08 15:41 41.75815 -72.02629 12007 ft 273 kts 74°
2026-05-08 15:41 41.76359 -72.00190 12009 ft 273 kts 74°
2026-05-08 15:41 41.76893 -71.97783 12008 ft 273 kts 74°
2026-05-08 15:41 41.77441 -71.95311 12008 ft 273 kts 74°
2026-05-08 15:42 41.77982 -71.92869 12009 ft 274 kts 74°
2026-05-08 15:42 41.78516 -71.90458 12007 ft 274 kts 74°
2026-05-08 15:42 41.79054 -71.88008 12007 ft 274 kts 74°
2026-05-08 15:42 41.79596 -71.85563 12009 ft 274 kts 74°
2026-05-08 15:43 41.80140 -71.83118 12008 ft 274 kts 74°
2026-05-08 15:43 41.80676 -71.80674 12007 ft 274 kts 74°
2026-05-08 15:43 41.81214 -71.78227 12007 ft 273 kts 74°
2026-05-08 15:43 41.81751 -71.75785 12009 ft 273 kts 74°
2026-05-08 15:44 41.82288 -71.73339 12009 ft 273 kts 74°
2026-05-08 15:44 41.82824 -71.70894 12009 ft 273 kts 74°
2026-05-08 15:44 41.83361 -71.68448 12008 ft 273 kts 74°
2026-05-08 15:44 41.83906 -71.66008 12005 ft 273 kts 72°
2026-05-08 15:45 41.84792 -71.63767 12005 ft 273 kts 54°
2026-05-08 15:45 41.86086 -71.61918 12009 ft 273 kts 43°
2026-05-08 15:45 41.87483 -71.60193 12009 ft 273 kts 44°
2026-05-08 15:45 41.88867 -71.58446 12008 ft 273 kts 44°
2026-05-08 15:46 41.90251 -71.56699 12008 ft 273 kts 44°
2026-05-08 15:46 41.91637 -71.54958 12008 ft 273 kts 44°
2026-05-08 15:46 41.93025 -71.53214 12008 ft 273 kts 44°
2026-05-08 15:46 41.94400 -71.51451 12013 ft 273 kts 47°
2026-05-08 15:47 41.95445 -71.49334 12028 ft 273 kts 65°
2026-05-08 15:47 41.96175 -71.46983 12024 ft 273 kts 68°
2026-05-08 15:47 41.96906 -71.44627 12021 ft 273 kts 68°
2026-05-08 15:47 41.97640 -71.42268 12019 ft 273 kts 68°
2026-05-08 15:48 41.99096 -71.37551 12015 ft 273 kts 68°
2026-05-08 15:48 41.99821 -71.35191 12012 ft 273 kts 68°
2026-05-08 15:48 42.00551 -71.32828 12010 ft 274 kts 68°
2026-05-08 15:49 42.01277 -71.30462 12008 ft 274 kts 68°
2026-05-08 15:49 42.02007 -71.28097 12008 ft 274 kts 68°
2026-05-08 15:49 42.02733 -71.25732 12007 ft 274 kts 68°
2026-05-08 15:49 42.03460 -71.23365 12007 ft 274 kts 68°
2026-05-08 15:50 42.04187 -71.20994 12007 ft 274 kts 68°
2026-05-08 15:50 42.04910 -71.18624 12007 ft 274 kts 68°
2026-05-08 15:50 42.05636 -71.16256 12007 ft 274 kts 68°
2026-05-08 15:50 42.06361 -71.13891 12007 ft 273 kts 68°
2026-05-08 15:51 42.07084 -71.11526 12008 ft 273 kts 68°
2026-05-08 15:51 42.07806 -71.09154 12007 ft 273 kts 68°
2026-05-08 15:51 42.08528 -71.06790 12009 ft 273 kts 68°
2026-05-08 15:51 42.09251 -71.04426 12008 ft 273 kts 68°
2026-05-08 15:52 42.09970 -71.02055 12007 ft 273 kts 68°
2026-05-08 15:52 42.10691 -70.99685 12007 ft 273 kts 68°
2026-05-08 15:52 42.11411 -70.97317 12009 ft 273 kts 68°
2026-05-08 15:52 42.12131 -70.94950 12007 ft 273 kts 68°
2026-05-08 15:53 42.12850 -70.92575 12007 ft 273 kts 68°
2026-05-08 15:53 42.13568 -70.90205 12007 ft 274 kts 69°
2026-05-08 15:53 42.14286 -70.87829 12008 ft 274 kts 68°
2026-05-08 15:53 42.15091 -70.85513 12001 ft 273 kts 57°
2026-05-08 15:54 42.16373 -70.83642 12004 ft 273 kts 39°
2026-05-08 15:54 42.17991 -70.82400 12004 ft 272 kts 21°
2026-05-08 15:54 42.19834 -70.81883 12004 ft 271 kts
2026-05-08 15:54 42.21701 -70.82159 12004 ft 271 kts 345°
2026-05-08 15:55 42.23407 -70.83197 12004 ft 270 kts 327°
2026-05-08 15:55 42.26147 -70.86651 12010 ft 270 kts 316°
2026-05-08 15:55 42.27484 -70.88427 12009 ft 270 kts 316°
2026-05-08 15:56 42.28821 -70.90210 12009 ft 270 kts 316°
2026-05-08 15:56 42.30153 -70.91994 12008 ft 270 kts 316°
2026-05-08 15:56 42.31486 -70.93778 12008 ft 270 kts 316°
2026-05-08 15:56 42.32821 -70.95561 12008 ft 270 kts 316°
2026-05-08 15:57 42.34153 -70.97344 12007 ft 270 kts 316°
2026-05-08 15:57 42.35484 -70.99128 12007 ft 270 kts 316°
2026-05-08 15:57 42.36819 -71.00913 12008 ft 270 kts 316°
2026-05-08 15:57 42.38154 -71.02704 12008 ft 270 kts 316°
2026-05-08 15:58 42.39490 -71.04496 12008 ft 270 kts 316°
2026-05-08 15:58 42.40824 -71.06290 12006 ft 270 kts 315°
2026-05-08 15:58 42.41839 -71.08402 11998 ft 269 kts 290°
2026-05-08 15:58 42.42047 -71.10895 11999 ft 269 kts 264°
2026-05-08 15:59 42.41408 -71.13254 12000 ft 269 kts 238°
2026-05-08 15:59 42.40061 -71.14989 11999 ft 270 kts 211°
2026-05-08 15:59 42.38289 -71.15740 12000 ft 271 kts 186°
2026-05-08 15:59 42.36428 -71.15351 12000 ft 272 kts 159°
2026-05-08 16:00 42.34838 -71.13976 12009 ft 273 kts 142°
2026-05-08 16:00 42.33410 -71.12287 12010 ft 273 kts 139°
2026-05-08 16:00 42.32480 -71.11144 12014 ft 273 kts 139°
2026-05-08 16:00 42.31062 -71.09387 11774 ft 280 kts 139°
2026-05-08 16:01 42.29613 -71.07596 11524 ft 284 kts 139°
2026-05-08 16:01 42.27677 -71.05205 11193 ft 286 kts 139°
2026-05-08 16:01 42.26211 -71.03392 10934 ft 286 kts 139°
2026-05-08 16:01 42.25221 -71.02165 10770 ft 286 kts 139°
2026-05-08 16:02 42.23759 -71.00348 10518 ft 285 kts 138°
2026-05-08 16:02 42.22299 -70.98535 10264 ft 285 kts 139°
2026-05-08 16:02 42.20843 -70.96729 10011 ft 284 kts 139°
2026-05-08 16:02 42.19391 -70.94926 9758 ft 284 kts 138°
2026-05-08 16:03 42.17944 -70.93123 9505 ft 283 kts 138°
2026-05-08 16:03 42.16497 -70.91326 9250 ft 282 kts 139°
2026-05-08 16:03 42.15058 -70.89533 8998 ft 281 kts 138°
2026-05-08 16:03 42.13620 -70.87746 8745 ft 281 kts 138°
2026-05-08 16:04 42.12185 -70.85967 8491 ft 280 kts 138°
2026-05-08 16:04 42.10756 -70.84192 8237 ft 279 kts 138°
2026-05-08 16:04 42.09334 -70.82423 7983 ft 278 kts 138°
2026-05-08 16:04 42.07914 -70.80657 7729 ft 277 kts 138°
2026-05-08 16:05 42.06503 -70.78898 7474 ft 276 kts 138°
2026-05-08 16:05 42.05091 -70.77144 7224 ft 276 kts 138°
2026-05-08 16:05 42.03680 -70.75398 6970 ft 275 kts 138°
2026-05-08 16:05 42.02274 -70.73653 6716 ft 275 kts 138°
2026-05-08 16:06 42.00873 -70.71913 6465 ft 274 kts 139°
2026-05-08 16:06 41.99473 -70.70176 6210 ft 273 kts 138°
2026-05-08 16:06 41.98156 -70.68348 5933 ft 273 kts 126°
2026-05-08 16:06 41.97446 -70.66008 5632 ft 273 kts 100°
2026-05-08 16:07 41.97559 -70.63516 5338 ft 273 kts 75°
2026-05-08 16:07 41.98373 -70.61231 5055 ft 271 kts 56°
2026-05-08 16:07 41.99727 -70.59510 4759 ft 270 kts 31°
2026-05-08 16:07 42.01496 -70.58742 4462 ft 268 kts
2026-05-08 16:08 42.03324 -70.59070 4169 ft 267 kts 341°
2026-05-08 16:08 42.04916 -70.60295 3992 ft 262 kts 321°
2026-05-08 16:08 42.06247 -70.61912 3991 ft 255 kts 317°
2026-05-08 16:08 42.07518 -70.63550 3993 ft 252 kts 316°
2026-05-08 16:09 42.08805 -70.65135 3995 ft 251 kts 319°
2026-05-08 16:09 42.10141 -70.66654 3992 ft 251 kts 321°
2026-05-08 16:09 42.11473 -70.68175 3991 ft 251 kts 320°
2026-05-08 16:09 42.12791 -70.69721 3992 ft 251 kts 319°
2026-05-08 16:10 42.14110 -70.71262 3996 ft 250 kts 320°
2026-05-08 16:10 42.15430 -70.72796 3995 ft 251 kts 319°
2026-05-08 16:10 42.16752 -70.74337 3994 ft 251 kts 320°
2026-05-08 16:10 42.18068 -70.75875 3991 ft 250 kts 318°
2026-05-08 16:11 42.19298 -70.77524 3989 ft 249 kts 315°
2026-05-08 16:11 42.20537 -70.79167 3891 ft 252 kts 317°
2026-05-08 16:11 42.21825 -70.80813 3612 ft 258 kts 316°
2026-05-08 16:11 42.23036 -70.82424 3305 ft 226 kts 315°
2026-05-08 16:12 42.24055 -70.83859 3096 ft 198 kts 314°
2026-05-08 16:12 42.24965 -70.85103 2883 ft 177 kts 316°
2026-05-08 16:12 42.25806 -70.86202 2664 ft 161 kts 315°
2026-05-08 16:12 42.26563 -70.87235 2454 ft 149 kts 316°
2026-05-08 16:13 42.27274 -70.88168 2268 ft 138 kts 316°
2026-05-08 16:13 42.27930 -70.89065 2086 ft 131 kts 315°
2026-05-08 16:13 42.28560 -70.89900 1918 ft 122 kts 316°
2026-05-08 16:13 42.29135 -70.90679 1762 ft 112 kts 315°
2026-05-08 16:14 42.29672 -70.91388 1616 ft 103 kts 315°
2026-05-08 16:14 42.30156 -70.92042 1482 ft 93 kts 316°
2026-05-08 16:14 42.30603 -70.92655 1380 ft 97 kts 314°
2026-05-08 16:14 42.31113 -70.93316 1247 ft 102 kts 315°
2026-05-08 16:15 42.31612 -70.93994 1109 ft 101 kts 316°
2026-05-08 16:15 42.32112 -70.94662 975 ft 101 kts 314°
2026-05-08 16:15 42.32577 -70.95286 850 ft 86 kts 315°
2026-05-08 16:15 42.32983 -70.95835 738 ft 83 kts 315°
2026-05-08 16:16 42.33394 -70.96384 626 ft 82 kts 315°
2026-05-08 16:16 42.33798 -70.96927 516 ft 81 kts 315°
2026-05-08 16:16 42.34198 -70.97464 408 ft 81 kts 315°
2026-05-08 16:16 42.34595 -70.97998 301 ft 80 kts 315°
2026-05-08 16:17 42.34991 -70.98530 200 ft 80 kts 315°
2026-05-08 16:17 42.35388 -70.99063 91 ft 82 kts 315°
2026-05-08 16:17 42.35788 -70.99601 27 ft 79 kts 315°
2026-05-08 16:17 42.36170 -71.00112 23 ft 73 kts 316°
2026-05-08 16:18 42.36474 -71.00484 23 ft 25 kts 318°
2026-05-08 16:18 42.36540 -71.00596 23 ft 15 kts 300°
2026-05-08 16:18 42.36577 -71.00709 24 ft 11 kts 286°
2026-05-08 16:18 42.36595 -71.00793 24 ft 7 kts 292°
2026-05-08 16:19 42.36611 -71.00869 26 ft 10 kts 282°
2026-05-08 16:19 42.36629 -71.00980 22 ft 14 kts 284°
2026-05-08 16:19 42.36656 -71.01120 23 ft 17 kts 279°
2026-05-08 16:19 42.36657 -71.01264 21 ft 12 kts 214°
2026-05-08 16:20 42.36581 -71.01314 18 ft 13 kts 285°
2026-05-08 16:20 42.36608 -71.01366 18 ft 0 kts 292°